| time (UTC) | temp F | wind direction | speed MPH | gust MPH | rain 1hr in | rain 24hr in | rain mn in | humidity % | barometer mb |
| 20260906220048 | 62 | 100 | 0.0 | 8.0 | 0.00 | 0.05 | 0.01 | 59 | 1011.5 |
| 20260906214545 | 61 | 119 | 3.0 | 9.0 | 0.00 | 0.05 | 0.01 | 61 | 1011.7 |
| 20260906213042 | 60 | 161 | 1.0 | 6.0 | 0.00 | 0.05 | 0.01 | 62 | 1012.0 |
| 20260906211544 | 60 | 152 | 3.0 | 6.0 | 0.00 | 0.05 | 0.01 | 64 | 1012.2 |
| 20260906210043 | 59 | 127 | 2.0 | 5.0 | 0.00 | 0.05 | 0.01 | 67 | 1012.4 |
| 20260906204534 | 59 | 142 | 0.0 | 9.0 | 0.00 | 0.05 | 0.01 | 65 | 1012.6 |
| 20260906203036 | 58 | 155 | 5.0 | 9.0 | 0.00 | 0.05 | 0.01 | 67 | 1012.8 |
| 20260906201539 | 58 | 162 | 3.0 | 7.0 | 0.00 | 0.05 | 0.01 | 69 | 1013.2 |
| 20260906200025 | 57 | 163 | 3.0 | 8.0 | 0.00 | 0.05 | 0.01 | 71 | 1013.4 |
| 20260906194521 | 55 | 166 | 2.0 | 9.0 | 0.00 | 0.05 | 0.01 | 76 | 1013.5 |
| 20260906193017 | 54 | 204 | 5.0 | 9.0 | 0.00 | 0.05 | 0.01 | 79 | 1013.7 |
| 20260906191513 | 53 | 136 | 1.0 | 6.0 | 0.01 | 0.05 | 0.01 | 81 | 1014.0 |
| 20260906190009 | 52 | 152 | 2.0 | 7.0 | 0.01 | 0.05 | 0.01 | 84 | 1014.2 |
| 20260906184508 | 51 | 126 | 3.0 | 7.0 | 0.01 | 0.05 | 0.01 | 86 | 1014.4 |
| 20260906183008 | 49 | 93 | 2.0 | 4.0 | 0.01 | 0.05 | 0.01 | 89 | 1014.4 |
| 20260906181512 | 47 | 160 | 1.0 | 5.0 | 0.00 | 0.04 | 0.00 | 93 | 1014.6 |
| 20260906180004 | 45 | 129 | 0.0 | 7.0 | 0.00 | 0.04 | 0.00 | 98 | 1014.8 |
| 20260906174503 | 44 | 152 | 2.0 | 7.0 | 0.00 | 0.04 | 0.00 | 98 | 1015.0 |
| 20260906173003 | 43 | 131 | 4.0 | 8.0 | 0.00 | 0.04 | 0.00 | 98 | 1015.1 |
| 20260906171505 | 42 | 126 | 0.0 | 5.0 | 0.00 | 0.04 | 0.00 | 98 | 1015.3 |
| 20260906170002 | 41 | 136 | 0.0 | 4.0 | 0.00 | 0.04 | 0.00 | 98 | 1015.3 |
| 20260906164503 | 38 | 153 | 1.0 | 5.0 | 0.00 | 0.04 | 0.00 | 97 | 1015.5 |
| 20260906163100 | 36 | 127 | 0.0 | 4.0 | 0.00 | 0.04 | 0.00 | 97 | 1015.5 |
| 20260906161622 | 34 | 129 | 0.0 | 3.0 | 0.00 | 0.04 | 0.00 | 97 | 1015.7 |
| 20260906160100 | 33 | 222 | 0.0 | 2.0 | 0.00 | 0.04 | 0.00 | 96 | 1015.8 |
| 20260906154559 | 33 | 221 | 0.0 | 0.0 | 0.00 | 0.04 | 0.00 | 96 | 1015.7 |
| 20260906153111 | 33 | 220 | 0.0 | 0.0 | 0.00 | 0.04 | 0.00 | 96 | 1015.7 |
| 20260906151556 | 35 | 222 | 0.0 | 0.0 | 0.00 | 0.04 | 0.00 | 95 | 1015.8 |
| 20260906150104 | 35 | 222 | 1.0 | 2.0 | 0.00 | 0.04 | 0.00 | 95 | 1015.8 |
| 20260906144553 | 35 | 359 | 0.0 | 0.0 | 0.00 | 0.04 | 0.00 | 95 | 1015.8 |
| 20260906143051 | 36 | 221 | 0.0 | 0.0 | 0.00 | 0.04 | 0.00 | 94 | 1015.8 |
| 20260906141606 | 36 | 222 | 0.0 | 0.0 | 0.00 | 0.04 | 0.00 | 94 | 1015.9 |
| 20260906140047 | 37 | 359 | 0.0 | 0.0 | 0.00 | 0.04 | 0.00 | 94 | 1016.1 |
| 20260906134547 | 37 | 222 | 0.0 | 0.0 | 0.00 | 0.04 | 0.00 | 94 | 1016.2 |
| 20260906133045 | 38 | 221 | 0.0 | 0.0 | 0.00 | 0.04 | 0.00 | 94 | 1016.1 |
| 20260906131553 | 39 | 221 | 0.0 | 0.0 | 0.00 | 0.04 | 0.00 | 94 | 1016.1 |
| 20260906130051 | 40 | 221 | 0.0 | 0.0 | 0.00 | 0.04 | 0.00 | 94 | 1016.0 |
| 20260906124534 | 40 | 222 | 0.0 | 0.0 | 0.00 | 0.04 | 0.00 | 94 | 1015.9 |
| 20260906123035 | 41 | 221 | 0.0 | 0.0 | 0.00 | 0.04 | 0.00 | 94 | 1015.9 |
| 20260906121535 | 42 | 222 | 0.0 | 0.0 | 0.00 | 0.04 | 0.00 | 94 | 1015.8 |
| 20260906120026 | 43 | 222 | 0.0 | 3.0 | 0.00 | 0.04 | 0.00 | 94 | 1015.9 |
| 20260906114530 | 43 | 221 | 0.0 | 3.0 | 0.00 | 0.04 | 0.00 | 94 | 1015.8 |
| 20260906113022 | 44 | 230 | 0.0 | 0.0 | 0.00 | 0.04 | 0.00 | 94 | 1015.6 |
| 20260906111520 | 44 | 231 | 0.0 | 0.0 | 0.00 | 0.04 | 0.00 | 94 | 1015.7 |
| 20260906110018 | 44 | 230 | 0.0 | 0.0 | 0.00 | 0.04 | 0.00 | 93 | 1015.6 |
| 20260906104515 | 45 | 359 | 0.0 | 0.0 | 0.00 | 0.04 | 0.00 | 93 | 1015.6 |
| 20260906103015 | 46 | 231 | 0.0 | 0.0 | 0.00 | 0.04 | 0.00 | 92 | 1015.5 |
| 20260906101510 | 47 | 231 | 0.0 | 2.0 | 0.00 | 0.04 | 0.00 | 92 | 1015.4 |
| 20260906100006 | 48 | 229 | 0.0 | 0.0 | 0.00 | 0.04 | 0.00 | 92 | 1015.4 |
| 20260906094502 | 49 | 229 | 0.0 | 0.0 | 0.00 | 0.04 | 0.00 | 92 | 1015.3 |
| 20260906093059 | 49 | 230 | 0.0 | 0.0 | 0.00 | 0.04 | 0.00 | 93 | 1015.2 |
| 20260906091558 | 50 | 229 | 0.0 | 2.0 | 0.00 | 0.04 | 0.00 | 93 | 1015.1 |
| 20260906090056 | 50 | 229 | 0.0 | 3.0 | 0.00 | 0.04 | 0.00 | 93 | 1015.0 |
| 20260906084557 | 51 | 359 | 0.0 | 3.0 | 0.00 | 0.04 | 0.00 | 93 | 1014.8 |
| 20260906083053 | 51 | 230 | 1.0 | 4.0 | 0.00 | 0.04 | 0.00 | 93 | 1014.9 |
| 20260906081551 | 51 | 272 | 0.0 | 0.0 | 0.00 | 0.04 | 0.00 | 92 | 1014.7 |
| 20260906080048 | 52 | 272 | 1.0 | 2.0 | 0.00 | 0.04 | 0.00 | 90 | 1014.8 |
| 20260906074547 | 52 | 359 | 0.0 | 4.0 | 0.00 | 0.04 | 0.04 | 89 | 1014.7 |
| 20260906073046 | 52 | 328 | 2.0 | 9.0 | 0.00 | 0.04 | 0.04 | 90 | 1014.7 |
| 20260906071544 | 51 | 318 | 2.0 | 8.0 | 0.00 | 0.04 | 0.04 | 91 | 1014.5 |
| 20260906070042 | 51 | 310 | 0.0 | 3.0 | 0.00 | 0.04 | 0.04 | 92 | 1014.3 |
| 20260906064540 | 51 | 310 | 0.0 | 6.0 | 0.00 | 0.04 | 0.04 | 91 | 1013.9 |
| 20260906063038 | 51 | 326 | 0.0 | 2.0 | 0.00 | 0.04 | 0.04 | 91 | 1013.8 |
| 20260906061545 | 52 | 326 | 0.0 | 3.0 | 0.00 | 0.04 | 0.04 | 91 | 1013.8 |
| 20260906060039 | 52 | 310 | 1.0 | 4.0 | 0.00 | 0.04 | 0.04 | 90 | 1013.5 |
| 20260906054537 | 52 | 272 | 1.0 | 4.0 | 0.01 | 0.04 | 0.04 | 90 | 1013.5 |
| 20260906053035 | 52 | 359 | 2.0 | 6.0 | 0.01 | 0.04 | 0.04 | 90 | 1013.3 |
| 20260906051536 | 52 | 359 | 2.0 | 4.0 | 0.01 | 0.04 | 0.04 | 91 | 1013.1 |
| 20260906050033 | 52 | 286 | 1.0 | 5.0 | 0.01 | 0.04 | 0.04 | 92 | 1013.0 |
| 20260906044529 | 53 | 221 | 0.0 | 3.0 | 0.00 | 0.03 | 0.03 | 92 | 1012.8 |
| 20260906043032 | 53 | 220 | 0.0 | 4.0 | 0.00 | 0.03 | 0.03 | 91 | 1012.8 |
| 20260906041528 | 54 | 220 | 1.0 | 6.0 | 0.00 | 0.03 | 0.03 | 91 | 1012.6 |
| 20260906040026 | 54 | 359 | 2.0 | 5.0 | 0.00 | 0.03 | 0.03 | 91 | 1012.2 |
| 20260906034541 | 54 | 279 | 0.0 | 4.0 | 0.01 | 0.03 | 0.03 | 91 | 1012.5 |
| 20260906033026 | 54 | 359 | 0.0 | 5.0 | 0.03 | 0.03 | 0.03 | 91 | 1012.3 |
| 20260906031529 | 55 | 259 | 1.0 | 4.0 | 0.03 | 0.03 | 0.03 | 90 | 1012.2 |
| 20260906030024 | 55 | 259 | 1.0 | 4.0 | 0.03 | 0.03 | 0.03 | 89 | 1012.3 |
| 20260906024521 | 56 | 258 | 1.0 | 5.0 | 0.02 | 0.02 | 0.02 | 87 | 1012.3 |
| 20260906023021 | 56 | 267 | 2.0 | 6.0 | 0.00 | 0.00 | 0.00 | 83 | 1012.0 |
| 20260906021516 | 58 | 359 | 2.0 | 9.0 | 0.00 | 0.00 | 0.00 | 79 | 1012.0 |
| 20260906020015 | 58 | 276 | 3.0 | 8.0 | 0.00 | 0.00 | 0.00 | 75 | 1011.7 |
| 20260906014514 | 58 | 359 | 3.0 | 8.0 | 0.00 | 0.00 | 0.00 | 75 | 1011.7 |
| 20260906013013 | 60 | 344 | 6.0 | 19.0 | 0.00 | 0.00 | 0.00 | 69 | 1011.4 |
| 20260906011511 | 61 | 268 | 6.0 | 16.0 | 0.00 | 0.00 | 0.00 | 67 | 1011.3 |
| 20260906010010 | 62 | 359 | 7.0 | 19.0 | 0.00 | 0.00 | 0.00 | 64 | 1011.1 |
| 20260906004509 | 65 | 316 | 4.0 | 25.0 | 0.00 | 0.00 | 0.00 | 58 | 1010.5 |
| 20260906003008 | 68 | 25 | 6.0 | 17.0 | 0.00 | 0.00 | 0.00 | 52 | 1009.9 |
| 20260906001508 | 69 | 280 | 5.0 | 13.0 | 0.00 | 0.00 | 0.00 | 41 | 1009.4 |
| 20260906000007 | 71 | 247 | 8.0 | 12.0 | 0.00 | 0.00 | 0.00 | 40 | 1009.1 |
| 20260905234505 | 70 | 232 | 5.0 | 16.0 | 0.00 | 0.00 | 0.00 | 41 | 1009.1 |
| 20260905233002 | 69 | 253 | 7.0 | 16.0 | 0.00 | 0.00 | 0.00 | 44 | 1009.0 |
| 20260905231505 | 68 | 220 | 6.0 | 18.0 | 0.00 | 0.00 | 0.00 | 45 | 1009.3 |
| 20260905230001 | 67 | 224 | 6.0 | 15.0 | 0.00 | 0.00 | 0.00 | 46 | 1009.1 |
| 20260905224559 | 67 | 256 | 9.0 | 17.0 | 0.00 | 0.00 | 0.00 | 46 | 1009.2 |
| 20260905223059 | 67 | 220 | 8.0 | 16.0 | 0.00 | 0.00 | 0.00 | 44 | 1009.2 |
| 20260905221601 | 68 | 228 | 5.0 | 14.0 | 0.00 | 0.00 | 0.00 | 44 | 1009.1 |